timestamp,wind_dir_avg,wind_spd_avg,wind_spd_max_dir,wind_spd_gust,battery_voltage,lat,long
2021-10-01 00:04:00+00:00,30.0,3.32,32.0,3.58,12.65,47.59359,-54.27349
2021-10-01 00:14:01+00:00,46.0,3.87,47.0,4.16,12.65,47.59359,-54.27349
2021-10-01 00:24:01+00:00,52.0,2.79,50.0,3.09,12.65,47.59359,-54.27349
2021-10-01 00:34:01+00:00,54.0,3.87,55.0,4.15,12.65,47.59359,-54.27349
2021-10-01 00:44:01+00:00,58.0,4.31,61.0,4.82,12.65,47.59359,-54.27349
2021-10-01 00:54:01+00:00,45.0,3.18,43.0,3.56,12.65,47.59359,-54.27349
2021-10-01 01:04:01+00:00,33.0,2.95,32.0,3.16,12.65,47.59359,-54.27349
2021-10-01 01:14:01+00:00,40.0,2.32,38.0,2.58,12.65,47.59359,-54.27349
2021-10-01 01:24:01+00:00,32.0,2.69,38.0,3.36,12.65,47.59359,-54.27349
2021-10-01 01:34:01+00:00,39.0,2.94,40.0,3.21,12.65,47.59359,-54.27349
2021-10-01 01:44:01+00:00,45.0,2.96,43.0,3.47,12.65,47.59359,-54.27349
2021-10-01 01:54:01+00:00,49.0,3.19,50.0,3.42,12.65,47.59359,-54.27349
2021-10-01 02:04:01+00:00,49.0,3.07,49.0,3.25,12.65,47.59359,-54.27349
2021-10-01 02:14:00+00:00,56.0,2.72,53.0,3.05,12.57,47.59359,-54.27349
2021-10-01 02:24:00+00:00,58.0,2.05,56.0,2.32,12.57,47.59359,-54.27349
2021-10-01 02:34:00+00:00,62.0,2.59,62.0,2.78,12.57,47.59359,-54.27349
2021-10-01 02:44:00+00:00,60.0,2.02,65.0,2.37,12.57,47.59359,-54.27349
2021-10-01 02:54:00+00:00,42.0,2.11,43.0,2.3,12.57,47.59359,-54.27349
2021-10-01 03:04:00+00:00,39.0,1.59,35.0,1.95,12.57,47.59359,-54.27349
2021-10-01 03:14:00+00:00,28.0,1.79,29.0,1.97,12.57,47.59359,-54.27349
2021-10-01 03:24:00+00:00,46.0,1.34,48.0,1.45,12.57,47.59359,-54.27349
2021-10-01 03:34:00+00:00,18.0,1.37,20.0,1.59,12.57,47.59359,-54.27349
2021-10-01 03:44:00+00:00,48.0,1.47,47.0,1.76,12.57,47.59359,-54.27349
2021-10-01 03:54:00+00:00,52.0,0.69,58.0,0.85,12.57,47.59359,-54.27349
2021-10-01 04:04:00+00:00,53.0,0.72,46.0,0.94,12.57,47.59359,-54.27349
2021-10-01 04:14:01+00:00,146.0,1.02,152.0,1.49,12.57,47.59359,-54.27349
2021-10-01 04:24:01+00:00,90.0,0.9,131.0,1.82,12.57,47.59359,-54.27349
2021-10-01 04:34:01+00:00,147.0,0.54,160.0,0.83,12.57,47.59359,-54.27349
2021-10-01 04:44:01+00:00,205.0,0.39,198.0,0.57,12.57,47.59359,-54.27349
2021-10-01 04:54:01+00:00,204.0,1.65,207.0,2.42,12.57,47.59359,-54.27349
2021-10-01 05:04:01+00:00,211.0,2.75,210.0,3.08,12.57,47.59359,-54.27349
2021-10-01 05:14:01+00:00,210.0,3.32,216.0,3.64,12.57,47.59359,-54.27349
2021-10-01 05:24:01+00:00,224.0,4.01,228.0,4.66,12.57,47.59359,-54.27349
2021-10-01 05:34:01+00:00,217.0,4.11,215.0,4.57,12.57,47.59359,-54.27349
2021-10-01 05:44:01+00:00,229.0,3.1,234.0,3.4,12.57,47.59359,-54.27349
2021-10-01 05:54:01+00:00,225.0,2.71,226.0,3.37,12.57,47.59359,-54.27349
2021-10-01 06:04:01+00:00,231.0,1.73,228.0,2.05,12.57,47.59359,-54.27349
2021-10-01 06:14:00+00:00,206.0,1.96,205.0,2.7,12.57,47.59359,-54.27349
2021-10-01 06:24:00+00:00,216.0,1.83,219.0,2.08,12.57,47.59359,-54.27349
2021-10-01 06:34:00+00:00,224.0,2.11,228.0,2.4,12.57,47.59359,-54.27349
2021-10-01 06:44:00+00:00,217.0,3.04,217.0,3.36,12.57,47.59359,-54.27349
2021-10-01 06:54:00+00:00,219.0,3.25,219.0,3.61,12.57,47.59359,-54.27349
2021-10-01 07:04:00+00:00,207.0,1.98,211.0,2.24,12.57,47.59359,-54.27349
2021-10-01 07:14:01+00:00,215.0,2.17,222.0,2.42,12.49,47.59359,-54.27349
2021-10-01 07:24:01+00:00,211.0,1.29,212.0,1.44,12.49,47.59359,-54.27349
2021-10-01 07:34:01+00:00,218.0,0.69,226.0,0.79,12.49,47.59359,-54.27349
2021-10-01 07:44:01+00:00,200.0,1.19,200.0,1.34,12.49,47.59359,-54.27349
2021-10-01 07:54:01+00:00,198.0,0.03,253.0,0.15,12.49,47.59359,-54.27349
2021-10-01 08:04:01+00:00,180.0,1.12,179.0,1.18,12.49,47.59359,-54.27349
2021-10-01 08:14:01+00:00,181.0,1.89,184.0,2.09,12.49,47.59359,-54.27349
2021-10-01 08:24:01+00:00,182.0,0.88,185.0,0.93,12.49,47.59359,-54.27349
2021-10-01 08:34:01+00:00,154.0,1.29,159.0,1.57,12.49,47.59359,-54.27349
2021-10-01 08:44:01+00:00,180.0,1.81,183.0,1.94,12.49,47.59359,-54.27349
2021-10-01 08:54:01+00:00,186.0,0.89,181.0,1.03,12.49,47.59359,-54.27349
2021-10-01 09:04:01+00:00,210.0,1.3,211.0,1.51,12.49,47.59359,-54.27349
2021-10-01 09:14:01+00:00,212.0,0.69,212.0,0.81,12.49,47.59359,-54.27349
2021-10-01 09:24:01+00:00,195.0,1.03,186.0,1.17,12.49,47.59359,-54.27349
2021-10-01 09:34:01+00:00,191.0,0.92,190.0,1.05,12.49,47.59359,-54.27349
2021-10-01 09:44:01+00:00,180.0,0.94,181.0,0.99,12.49,47.59359,-54.27349
2021-10-01 09:54:01+00:00,182.0,0.82,180.0,0.95,12.49,47.59359,-54.27349
2021-10-01 10:04:01+00:00,189.0,1.28,188.0,1.45,12.49,47.59359,-54.27349
2021-10-01 10:14:00+00:00,135.0,0.57,143.0,0.68,12.41,47.59359,-54.27349
2021-10-01 10:24:00+00:00,68.0,0.77,74.0,1.02,12.41,47.59359,-54.27349
2021-10-01 10:34:00+00:00,46.0,0.65,47.0,0.71,12.41,47.59359,-54.27349
2021-10-01 10:44:00+00:00,26.0,0.08,38.0,0.14,12.41,47.59359,-54.27349
2021-10-01 10:54:00+00:00,32.0,0.57,24.0,0.69,12.41,47.59359,-54.27349
2021-10-01 11:04:00+00:00,5.0,0.84,5.0,0.98,12.41,47.59359,-54.27349
2021-10-01 11:14:00+00:00,36.0,2.45,36.0,2.65,12.49,47.59359,-54.27349
2021-10-01 11:24:00+00:00,33.0,2.26,32.0,2.41,12.49,47.59359,-54.27349
2021-10-01 11:34:00+00:00,46.0,2.45,46.0,2.69,12.49,47.59359,-54.27349
2021-10-01 11:44:00+00:00,65.0,3.32,67.0,4.27,12.49,47.59359,-54.27349
2021-10-01 11:54:00+00:00,67.0,2.77,71.0,3.17,12.49,47.59359,-54.27349
2021-10-01 12:04:00+00:00,67.0,2.81,69.0,3.06,12.49,47.59359,-54.27349
2021-10-01 12:14:01+00:00,52.0,3.79,53.0,4.14,12.65,47.59359,-54.27349
2021-10-01 12:24:01+00:00,53.0,3.45,52.0,3.78,12.65,47.59359,-54.27349
2021-10-01 12:34:01+00:00,65.0,2.03,67.0,2.53,12.65,47.59359,-54.27349
2021-10-01 12:44:01+00:00,36.0,2.79,37.0,3.05,12.65,47.59359,-54.27349
2021-10-01 12:54:01+00:00,35.0,2.84,40.0,3.1,12.65,47.59359,-54.27349
2021-10-01 13:04:01+00:00,45.0,3.09,44.0,3.42,12.65,47.59359,-54.27349
2021-10-01 13:14:01+00:00,53.0,3.59,54.0,4.06,13.21,47.59359,-54.27349
2021-10-01 13:24:01+00:00,52.0,3.26,54.0,3.8,13.21,47.59359,-54.27349
2021-10-01 13:34:01+00:00,60.0,3.44,57.0,3.82,13.21,47.59359,-54.27349
2021-10-01 13:44:01+00:00,54.0,3.14,49.0,3.49,13.21,47.59359,-54.27349
2021-10-01 13:54:01+00:00,56.0,3.3,60.0,3.82,13.21,47.59359,-54.27349
2021-10-01 14:04:01+00:00,50.0,2.67,44.0,3.15,13.21,47.59359,-54.27349
2021-10-01 15:14:01+00:00,51.0,2.49,39.0,2.84,13.29,47.59359,-54.27349
2021-10-01 15:24:01+00:00,48.0,3.61,52.0,4.0,13.29,47.59359,-54.27349
2021-10-01 15:34:01+00:00,39.0,3.74,47.0,4.23,13.29,47.59359,-54.27349
2021-10-01 15:44:01+00:00,33.0,4.2,32.0,4.58,13.29,47.59359,-54.27349
2021-10-01 15:54:01+00:00,41.0,3.22,41.0,3.53,13.29,47.59359,-54.27349
2021-10-01 16:04:01+00:00,31.0,3.51,35.0,4.15,13.29,47.59359,-54.27349
2021-10-01 16:14:01+00:00,19.0,3.01,16.0,3.25,13.37,47.59359,-54.27349
2021-10-01 16:24:01+00:00,12.0,3.46,11.0,3.73,13.37,47.59359,-54.27349
2021-10-01 16:34:01+00:00,34.0,3.53,34.0,3.75,13.37,47.59359,-54.27349
2021-10-01 16:44:01+00:00,64.0,2.81,65.0,3.62,13.37,47.59359,-54.27349
2021-10-01 16:54:01+00:00,64.0,2.42,69.0,3.39,13.37,47.59359,-54.27349
2021-10-01 17:04:01+00:00,59.0,2.67,57.0,3.44,13.37,47.59359,-54.27349
2021-10-01 17:14:01+00:00,61.0,3.1,57.0,3.39,13.37,47.59359,-54.27349
2021-10-01 17:24:01+00:00,57.0,3.1,66.0,3.64,13.37,47.59359,-54.27349
2021-10-01 17:34:01+00:00,58.0,3.59,55.0,4.02,13.37,47.59359,-54.27349
2021-10-01 17:44:01+00:00,55.0,4.26,57.0,4.79,13.37,47.59359,-54.27349
2021-10-01 17:54:01+00:00,51.0,4.67,52.0,5.09,13.37,47.59359,-54.27349
2021-10-01 18:04:01+00:00,34.0,3.72,35.0,4.21,13.37,47.59359,-54.27349
2021-10-01 18:14:01+00:00,55.0,3.7,57.0,4.15,13.29,47.59359,-54.27349
2021-10-01 18:24:01+00:00,57.0,2.89,59.0,3.29,13.29,47.59359,-54.27349
2021-10-01 18:34:01+00:00,53.0,3.84,52.0,4.37,13.29,47.59359,-54.27349
2021-10-01 18:44:01+00:00,51.0,2.35,45.0,2.94,13.29,47.59359,-54.27349
2021-10-01 18:54:01+00:00,45.0,3.65,47.0,4.03,13.29,47.59359,-54.27349
2021-10-01 19:04:01+00:00,42.0,3.31,43.0,3.56,13.29,47.59359,-54.27349
2021-10-01 19:14:01+00:00,52.0,4.16,53.0,4.56,13.05,47.59359,-54.27349
2021-10-01 19:24:01+00:00,53.0,3.31,57.0,3.94,13.05,47.59359,-54.27349
2021-10-01 19:34:01+00:00,65.0,3.91,68.0,4.68,13.05,47.59359,-54.27349
2021-10-01 19:44:01+00:00,64.0,5.93,64.0,6.56,13.05,47.59359,-54.27349
2021-10-01 19:54:01+00:00,77.0,6.27,65.0,8.26,13.05,47.59359,-54.27349
2021-10-01 20:04:01+00:00,85.0,4.21,78.0,6.79,13.05,47.59359,-54.27349
2021-10-01 20:14:01+00:00,103.0,4.47,122.0,7.72,12.97,47.59359,-54.27349
2021-10-01 20:24:01+00:00,101.0,3.5,103.0,6.49,12.97,47.59359,-54.27349
2021-10-01 20:34:01+00:00,96.0,3.39,110.0,5.88,12.97,47.59359,-54.27349
2021-10-01 20:44:01+00:00,90.0,3.62,99.0,5.1,12.97,47.59359,-54.27349
2021-10-01 20:54:01+00:00,79.0,3.31,70.0,5.62,12.97,47.59359,-54.27349
2021-10-01 21:04:01+00:00,81.0,4.66,73.0,8.37,12.97,47.59359,-54.27349
2021-10-01 21:14:01+00:00,92.0,4.58,64.0,6.77,12.73,47.59359,-54.27349
2021-10-01 21:24:01+00:00,66.0,2.25,60.0,4.28,12.73,47.59359,-54.27349
2021-10-01 21:34:01+00:00,71.0,2.95,93.0,4.01,12.73,47.59359,-54.27349
2021-10-01 21:44:01+00:00,74.0,2.14,78.0,2.85,12.73,47.59359,-54.27349
2021-10-01 21:54:01+00:00,55.0,2.32,51.0,2.82,12.73,47.59359,-54.27349
2021-10-01 22:04:01+00:00,41.0,2.33,43.0,2.61,12.73,47.59359,-54.27349
2021-10-01 22:14:01+00:00,27.0,3.38,30.0,3.65,12.65,47.59359,-54.27349
2021-10-01 22:24:01+00:00,16.0,3.28,15.0,3.44,12.65,47.59359,-54.27349
2021-10-01 22:34:01+00:00,31.0,4.1,31.0,4.5,12.65,47.59359,-54.27349
2021-10-01 22:44:01+00:00,17.0,4.13,21.0,4.73,12.65,47.59359,-54.27349
2021-10-01 22:54:01+00:00,8.0,2.65,11.0,2.98,12.65,47.59359,-54.27349
2021-10-01 23:04:01+00:00,12.0,3.74,16.0,4.35,12.65,47.59359,-54.27349
2021-10-01 23:14:01+00:00,18.0,4.36,13.0,5.04,12.65,47.59359,-54.27349
2021-10-01 23:24:01+00:00,38.0,5.22,41.0,5.65,12.65,47.59359,-54.27349
2021-10-01 23:34:01+00:00,29.0,4.22,32.0,4.6,12.65,47.59359,-54.27349
2021-10-01 23:44:01+00:00,2.0,3.9,7.0,4.32,12.65,47.59359,-54.27349
2021-10-01 23:54:01+00:00,334.0,2.49,333.0,2.82,12.65,47.59359,-54.27349
